DW6440 Weather Reports


Display with metric or nautical units.
time (UTC)temp
F
wind
direction
speed
MPH
gust
MPH
rain 1hr
in
rain 24hr
in
rain mn
in
humidity
%
barometer
mb
20260508155609 63 254 6.0 19.0 0.00 0.00 0.00 46 1012.9
20260508155104 62 265 6.0 16.0 0.00 0.00 0.00 47 1013.1
20260508154556 62 196 7.0 17.0 0.00 0.00 0.00 46 1013.2
20260508154051 61 207 6.0 17.0 0.00 0.00 0.00 44 1013.3
20260508153544 61 218 5.0 16.0 0.00 0.00 0.00 48 1013.3
20260508153038 61 267 6.0 16.0 0.00 0.00 0.00 47 1013.4
20260508152533 61 218 6.0 15.0 0.00 0.00 0.00 47 1013.4
20260508152031 61 249 5.0 15.0 0.00 0.00 0.00 45 1013.4
20260508151756 60 252 4.0 10.0 0.00 0.00 0.00 47 1013.4
20260508151247 60 192 6.0 16.0 0.00 0.00 0.00 46 1013.7
20260508150811 59 214 6.0 16.0 0.00 0.00 0.00 47 1013.6
20260508150030 60 194 5.0 12.0 0.00 0.00 0.00 46 1013.6
20260508145528 59 217 6.0 12.0 0.00 0.00 0.00 50 1013.7
20260508145259 59 246 6.0 14.0 0.00 0.00 0.00 48 1013.7
20260508144529 59 265 5.0 14.0 0.00 0.00 0.00 45 1013.8
20260508144030 59 231 5.0 10.0 0.00 0.00 0.00 50 1013.8
20260508143530 59 229 4.0 10.0 0.00 0.00 0.00 47 1013.8
20260508143036 59 259 3.0 8.0 0.00 0.00 0.00 54 1013.8
20260508142802 58 265 4.0 10.0 0.00 0.00 0.00 53 1013.8
20260508142032 58 250 5.0 10.0 0.00 0.00 0.00 49 1013.9
20260508141754 58 246 4.0 10.0 0.00 0.00 0.00 52 1013.9
20260508141022 57 196 3.0 7.0 0.00 0.00 0.00 55 1013.8
20260508140528 56 257 3.0 8.0 0.00 0.00 0.00 55 1013.9
20260508140018 56 202 3.0 8.0 0.00 0.00 0.00 54 1013.9
20260508135523 56 254 3.0 8.0 0.00 0.00 0.00 55 1013.9
20260508135025 56 253 3.0 7.0 0.00 0.00 0.00 57 1014.0
20260508134524 56 199 3.0 8.0 0.00 0.00 0.00 58 1014.0
20260508134027 56 248 3.0 9.0 0.00 0.00 0.00 59 1014.0
20260508133521 56 273 3.0 9.0 0.00 0.00 0.00 58 1014.0
20260508133256 57 274 3.0 9.0 0.00 0.00 0.00 60 1014.0
20260508132521 57 195 4.0 9.0 0.00 0.00 0.00 55 1014.1
20260508132023 56 231 4.0 8.0 0.00 0.00 0.00 55 1014.1
20260508131520 56 217 4.0 8.0 0.00 0.00 0.00 56 1014.2
20260508131237 55 221 4.0 8.0 0.00 0.00 0.00 57 1014.2
20260508130750 55 261 3.0 8.0 0.00 0.00 0.00 60 1014.1
20260508130014 55 233 3.0 8.0 0.00 0.00 0.00 63 1014.2
20260508125512 54 213 1.0 5.0 0.00 0.00 0.00 67 1014.2
20260508125014 54 198 0.0 5.0 0.00 0.00 0.00 70 1014.2
20260508124744 54 155 2.0 6.0 0.00 0.00 0.00 72 1014.2
20260508124013 53 153 2.0 6.0 0.00 0.00 0.00 71 1014.1
20260508123514 52 158 1.0 6.0 0.00 0.00 0.00 70 1014.2
20260508123015 52 254 2.0 6.0 0.00 0.00 0.00 71 1014.2
20260508122514 51 283 2.0 6.0 0.00 0.00 0.00 73 1014.5
20260508122010 50 286 1.0 4.0 0.00 0.00 0.00 77 1014.2
20260508121509 49 308 1.0 4.0 0.00 0.00 0.00 79 1014.2
20260508121009 48 308 2.0 4.0 0.00 0.00 0.00 80 1014.1
20260508120735 48 342 1.0 3.0 0.00 0.00 0.00 82 1014.0
20260508120011 47 342 0.0 3.0 0.00 0.00 0.00 83 1014.0
20260508115513 47 342 0.0 1.0 0.00 0.00 0.00 85 1014.0
20260508115234 46 342 0.0 0.0 0.00 0.00 0.00 85 1013.9
20260508114510 46 342 0.0 0.0 0.00 0.00 0.00 87 1013.9
20260508114009 45 342 0.0 0.0 0.00 0.00 0.00 88 1014.0
20260508113507 44 342 0.0 1.0 0.00 0.00 0.00 89 1014.0
20260508113007 44 342 0.0 1.0 0.00 0.00 0.00 90 1014.0
20260508112504 43 342 0.0 1.0 0.00 0.00 0.00 90 1014.0
20260508112005 42 342 0.0 0.0 0.00 0.00 0.00 90 1013.9
20260508111500 42 343 0.0 0.0 0.00 0.00 0.00 90 1013.8
20260508110958 42 342 0.0 0.0 0.00 0.00 0.00 90 1013.7
20260508110457 41 342 0.0 0.0 0.00 0.00 0.00 91 1013.8
20260508105959 41 343 0.0 0.0 0.00 0.00 0.00 91 1013.8
20260508105458 40 342 0.0 0.0 0.00 0.00 0.00 90 1013.7
20260508104959 40 342 0.0 0.0 0.00 0.00 0.00 90 1013.6
20260508104933 40 342 0.0 0.0 0.00 0.00 0.00 90 1013.4
20260508103954 39 342 0.0 0.0 0.00 0.00 0.00 90 1013.5
20260508103452 39 342 0.0 1.0 0.00 0.00 0.00 90 1013.4
20260508102950 39 342 0.0 1.0 0.00 0.00 0.00 90 1013.4
20260508102449 39 342 0.0 0.0 0.00 0.00 0.00 90 1013.4
20260508101949 39 342 0.0 0.0 0.00 0.00 0.00 89 1013.4
20260508101444 39 342 0.0 0.0 0.00 0.00 0.00 89 1013.3
20260508100944 39 342 0.0 0.0 0.00 0.00 0.00 89 1013.2
20260508100704 39 342 0.0 0.0 0.00 0.00 0.00 89 1013.2
20260508095933 40 342 0.0 0.0 0.00 0.00 0.00 89 1013.1
20260508095426 40 342 0.0 0.0 0.00 0.00 0.00 89 1013.1
20260508094921 40 342 0.0 0.0 0.00 0.00 0.00 89 1013.1
20260508094414 40 342 0.0 0.0 0.00 0.00 0.00 88 1013.1
20260508093909 40 342 0.0 0.0 0.00 0.00 0.00 88 1013.0
20260508093856 40 342 0.0 0.0 0.00 0.00 0.00 88 1013.0
20260508092855 41 342 0.0 0.0 0.00 0.00 0.00 88 1013.0
20260508092350 41 342 0.0 0.0 0.00 0.00 0.00 88 1012.9
20260508091845 41 342 0.0 0.0 0.00 0.00 0.00 88 1013.0
20260508091605 41 342 0.0 0.0 0.00 0.00 0.00 87 1013.0
20260508090832 41 342 0.0 0.0 0.00 0.00 0.00 87 1013.0
20260508090327 42 342 0.0 0.0 0.00 0.00 0.00 86 1013.0
20260508085820 42 342 0.0 0.0 0.00 0.00 0.00 86 1013.0
20260508085315 42 342 0.0 0.0 0.00 0.00 0.00 85 1013.0
20260508084808 42 342 0.0 0.0 0.00 0.00 0.00 85 1012.9
20260508084304 43 342 0.0 0.0 0.00 0.00 0.00 84 1012.9
20260508084023 43 342 0.0 0.0 0.00 0.00 0.00 83 1012.7
20260508083251 44 342 0.0 0.0 0.00 0.00 0.00 82 1012.7
20260508082746 44 343 0.0 0.0 0.00 0.00 0.00 81 1012.6
20260508082240 45 342 0.0 2.0 0.00 0.00 0.00 80 1012.6
20260508081733 46 342 0.0 3.0 0.00 0.00 0.00 78 1012.5
20260508081227 46 343 1.0 4.0 0.00 0.00 0.00 78 1012.6
20260508080722 47 343 2.0 4.0 0.00 0.00 0.00 78 1012.3
20260508080215 47 339 1.0 7.0 0.00 0.00 0.00 77 1012.3
20260508075709 47 338 2.0 7.0 0.00 0.00 0.00 77 1012.2
20260508075203 47 355 2.0 5.0 0.00 0.00 0.00 78 1012.2
20260508074922 47 322 1.0 6.0 0.00 0.00 0.00 77 1012.1
20260508074149 47 321 2.0 6.0 0.00 0.00 0.00 77 1012.1
20260508073644 47 355 2.0 5.0 0.00 0.00 0.00 76 1012.0
20260508073141 48 5 3.0 5.0 0.00 0.01 0.00 76 1012.0
20260508072633 48 5 3.0 6.0 0.00 0.01 0.00 75 1012.0
20260508072125 48 343 2.0 6.0 0.00 0.01 0.00 75 1011.9
20260508071844 48 319 3.0 8.0 0.00 0.01 0.00 74 1011.9
20260508071113 49 347 3.0 8.0 0.00 0.01 0.00 73 1011.9
20260508070833 49 325 2.0 7.0 0.00 0.01 0.00 73 1011.8
20260508070108 49 320 4.0 11.0 0.00 0.01 0.00 72 1011.8
20260508065556 49 259 3.0 11.0 0.00 0.01 0.00 72 1011.8
20260508065052 49 293 3.0 9.0 0.00 0.01 0.00 72 1011.8
20260508064544 50 340 4.0 11.0 0.00 0.02 0.00 71 1011.8
20260508064041 50 341 5.0 11.0 0.00 0.02 0.00 70 1011.8
20260508063532 51 315 6.0 14.0 0.00 0.03 0.00 70 1011.7
20260508063259 51 5 6.0 14.0 0.00 0.05 0.00 69 1011.7
20260508062520 51 242 4.0 13.0 0.00 0.05 0.00 69 1011.6
20260508062242 51 342 4.0 10.0 0.00 0.05 0.00 68 1011.5
20260508061508 51 323 5.0 15.0 0.00 0.06 0.00 68 1011.4
20260508061001 52 355 5.0 15.0 0.00 0.06 0.00 67 1011.3
20260508060457 52 308 4.0 12.0 0.00 0.06 0.00 67 1011.1
20260508055951 52 344 4.0 12.0 0.00 0.06 0.00 67 1011.1
20260508055706 52 325 4.0 9.0 0.00 0.06 0.00 66 1011.1
20260508054938 53 319 5.0 12.0 0.00 0.06 0.00 66 1010.8
20260508054431 52 321 5.0 15.0 0.00 0.06 0.00 67 1010.7
20260508053927 51 267 4.0 15.0 0.00 0.06 0.00 71 1010.7
20260508053421 50 276 3.0 11.0 0.00 0.07 0.00 78 1010.6
20260508052919 49 269 2.0 5.0 0.00 0.08 0.00 84 1010.5
20260508052415 48 308 1.0 5.0 0.00 0.09 0.00 85 1010.4
20260508051918 48 230 0.0 3.0 0.00 0.09 0.00 85 1010.3
20260508051415 48 225 0.0 0.0 0.00 0.10 0.00 84 1010.2
20260508050914 49 225 0.0 0.0 0.00 0.11 0.00 84 1010.1
20260508050412 49 225 0.0 0.0 0.00 0.13 0.00 83 1010.0
20260508045908 49 225 0.0 0.0 0.00 0.13 0.00 83 1010.0
20260508045407 50 225 0.0 0.0 0.00 0.13 0.00 82 1010.0
20260508044904 50 225 0.0 0.0 0.00 0.13 0.00 82 1009.9
20260508044404 50 225 0.0 0.0 0.00 0.13 0.00 82 1009.8
20260508043900 50 225 0.0 0.0 0.00 0.13 0.00 81 1009.8
20260508043359 51 225 0.0 0.0 0.00 0.13 0.00 81 1009.7
20260508042856 51 225 0.0 0.0 0.00 0.13 0.00 80 1009.7
20260508042836 51 225 0.0 0.0 0.00 0.13 0.00 80 1009.7
20260508042125 51 225 0.0 0.0 0.00 0.13 0.00 80 1009.7
20260508041353 52 225 0.0 0.0 0.00 0.13 0.00 79 1009.6
20260508040853 52 225 0.0 0.0 0.00 0.13 0.00 79 1009.6
20260508040620 52 225 0.0 0.0 0.00 0.13 0.00 78 1009.5
20260508035859 52 225 0.0 0.0 0.00 0.13 0.13 77 1009.5
20260508035356 52 225 0.0 0.0 0.00 0.13 0.13 77 1009.5
20260508034851 52 225 0.0 0.0 0.00 0.13 0.13 77 1009.5
20260508034350 53 225 0.0 0.0 0.00 0.13 0.13 76 1009.5
20260508033849 53 225 0.0 1.0 0.00 0.13 0.13 76 1009.5
20260508033341 53 225 0.0 2.0 0.00 0.13 0.13 75 1009.5
20260508032842 53 225 0.0 2.0 0.00 0.13 0.13 76 1009.5
20260508032821 52 225 0.0 2.0 0.00 0.14 0.13 77 1009.5
20260508031838 52 225 0.0 0.0 0.00 0.14 0.13 77 1009.5
20260508031339 53 225 0.0 1.0 0.00 0.14 0.13 77 1009.5
20260508030839 53 225 0.0 2.0 0.00 0.15 0.13 76 1009.4
20260508030337 52 225 0.0 2.0 0.00 0.17 0.13 76 1009.5
20260508025835 52 225 0.0 2.0 0.00 0.17 0.13 76 1009.4
20260508025336 53 225 0.0 0.0 0.00 0.17 0.13 75 1009.5
20260508024835 53 225 0.0 3.0 0.00 0.17 0.13 74 1009.5
20260508024336 53 225 1.0 5.0 0.00 0.17 0.13 74 1009.4
20260508023836 53 226 1.0 5.0 0.00 0.17 0.13 74 1009.4
20260508023338 53 277 1.0 3.0 0.00 0.17 0.13 74 1009.5
20260508022837 53 294 0.0 3.0 0.00 0.17 0.13 75 1009.4
20260508022557 52 294 0.0 3.0 0.00 0.18 0.13 75 1009.6
20260508022055 52 313 0.0 2.0 0.00 0.19 0.13 75 1009.5
20260508021338 52 313 0.0 2.0 0.00 0.19 0.13 76 1009.4
20260508020830 51 313 0.0 2.0 0.00 0.19 0.13 77 1009.5
20260508020555 51 313 1.0 2.0 0.00 0.19 0.13 77 1009.5
20260508015835 51 313 1.0 3.0 0.00 0.20 0.13 77 1009.4
20260508015339 51 313 1.0 3.0 0.00 0.20 0.13 77 1009.4
20260508014835 51 355 0.0 1.0 0.00 0.21 0.13 77 1009.2
20260508014331 51 355 0.0 1.0 0.00 0.21 0.13 77 1009.1
20260508013832 52 355 0.0 1.0 0.00 0.21 0.13 77 1009.1
20260508013332 52 355 0.0 1.0 0.00 0.21 0.13 76 1009.1
20260508012831 52 355 0.0 1.0 0.00 0.22 0.13 75 1009.0
20260508012329 52 355 0.0 1.0 0.00 0.22 0.13 74 1008.9
20260508011831 52 355 0.0 1.0 0.00 0.23 0.13 73 1008.8
20260508011330 52 355 0.0 1.0 0.00 0.24 0.13 73 1008.8
20260508010827 52 355 0.0 1.0 0.00 0.29 0.13 72 1008.7
20260508010326 52 355 0.0 0.0 0.00 0.30 0.13 72 1008.6
20260508005826 52 355 0.0 0.0 0.00 0.30 0.13 71 1008.5
20260508005550 52 355 0.0 0.0 0.00 0.30 0.13 71 1008.4
20260508004826 52 355 0.0 0.0 0.00 0.30 0.13 71 1008.5
20260508004326 53 355 0.0 0.0 0.00 0.30 0.13 70 1008.4
20260508003826 53 355 0.0 0.0 0.00 0.30 0.13 70 1008.4
20260508003326 53 355 0.0 0.0 0.00 0.30 0.13 70 1008.4
20260508002838 53 355 0.0 0.0 0.00 0.30 0.13 68 1008.4
20260508002544 54 355 0.0 0.0 0.00 0.30 0.13 66 1008.4
20260508002048 55 355 0.0 0.0 0.00 0.30 0.13 65 1008.4
20260508001322 55 355 0.0 1.0 0.00 0.30 0.13 64 1008.3
20260508001303 56 355 0.0 1.0 0.00 0.30 0.13 62 1008.2
20260508000312 56 355 0.0 0.0 0.00 0.30 0.13 61 1008.3
20260507235807 56 355 0.0 0.0 0.00 0.30 0.13 63 1008.1
20260507235527 57 355 0.0 1.0 0.00 0.30 0.13 59 1008.1
20260507234752 58 355 0.0 1.0 0.00 0.30 0.13 58 1008.0
20260507234246 58 355 0.0 1.0 0.00 0.30 0.13 57 1008.0
20260507233744 59 355 0.0 1.0 0.00 0.30 0.13 55 1007.9
20260507233246 60 355 0.0 2.0 0.00 0.30 0.13 53 1007.9
20260507232746 60 355 0.0 2.0 0.00 0.30 0.13 48 1007.8
20260507232241 61 355 0.0 2.0 0.00 0.30 0.13 47 1007.8
20260507231744 61 355 0.0 2.0 0.00 0.30 0.13 45 1007.8
20260507231240 61 355 1.0 3.0 0.00 0.30 0.13 42 1007.8
20260507231006 61 355 1.0 3.0 0.00 0.30 0.13 40 1007.8
20260507230237 61 355 0.0 3.0 0.00 0.30 0.13 44 1007.9
20260507225737 61 355 0.0 3.0 0.00 0.30 0.13 45 1007.9
20260507225238 62 355 1.0 3.0 0.00 0.30 0.13 43 1007.8
20260507224736 62 355 2.0 6.0 0.00 0.30 0.13 41 1007.8
20260507224233 63 355 3.0 8.0 0.00 0.30 0.13 38 1007.7
20260507223733 63 323 2.0 8.0 0.00 0.30 0.13 41 1007.8
20260507223234 64 19 2.0 4.0 0.00 0.30 0.13 41 1007.7
20260507222732 64 17 2.0 4.0 0.00 0.30 0.13 39 1007.7
20260507222234 63 325 2.0 4.0 0.00 0.30 0.13 38 1007.7
20260507221732 64 286 2.0 6.0 0.00 0.30 0.13 39 1007.8
20260507221229 64 313 2.0 6.0 0.00 0.30 0.13 40 1007.7
20260507220730 64 355 2.0 8.0 0.00 0.30 0.13 41 1007.8
20260507220234 64 273 2.0 8.0 0.00 0.30 0.13 42 1007.7
20260507215941 64 252 2.0 6.0 0.00 0.30 0.13 40 1007.8
20260507215211 64 0 3.0 8.0 0.00 0.30 0.13 39 1007.9
20260507214703 64 317 3.0 8.0 0.00 0.30 0.13 41 1008.0
20260507214156 64 317 3.0 8.0 0.00 0.30 0.13 43 1007.9
20260507213910 64 287 2.0 7.0 0.00 0.30 0.13 44 1007.9
20260507213145 65 271 2.0 7.0 0.00 0.30 0.13 40 1008.0
20260507212905 65 55 3.0 10.0 0.00 0.30 0.13 42 1008.0
20260507212401 65 0 4.0 11.0 0.00 0.30 0.13 43 1008.0
20260507211627 65 22 5.0 11.0 0.00 0.30 0.13 40 1008.1
20260507211120 65 0 3.0 11.0 0.00 0.30 0.13 38 1008.0
20260507210618 65 281 2.0 6.0 0.00 0.30 0.13 44 1007.9
20260507210110 63 343 2.0 8.0 0.00 0.30 0.13 44 1007.9
20260507205820 63 318 2.0 8.0 0.00 0.30 0.13 43 1007.9
20260507205057 64 334 3.0 8.0 0.00 0.30 0.13 41 1008.0
20260507204813 63 230 3.0 8.0 0.00 0.30 0.13 43 1007.9
20260507204044 63 319 3.0 9.0 0.00 0.30 0.13 44 1007.9
20260507203539 64 271 4.0 9.0 0.00 0.30 0.13 42 1007.9
20260507203033 65 243 5.0 9.0 0.00 0.30 0.13 42 1007.8
20260507202532 65 326 4.0 10.0 0.00 0.30 0.13 40 1007.8
20260507202021 64 30 5.0 11.0 0.00 0.30 0.13 40 1007.8
20260507202010 64 5 5.0 11.0 0.00 0.30 0.13 39 1007.9
20260507201009 64 17 6.0 13.0 0.00 0.30 0.13 42 1008.1
20260507200505 63 330 7.0 13.0 0.00 0.30 0.13 42 1008.1
20260507200219 63 355 4.0 12.0 0.00 0.30 0.13 44 1008.1
20260507195451 63 327 4.0 14.0 0.00 0.30 0.13 41 1008.1
20260507195207 64 312 5.0 14.0 0.00 0.30 0.13 41 1008.2
20260507194441 64 338 6.0 14.0 0.00 0.30 0.13 41 1008.2
20260507193935 64 342 7.0 17.0 0.00 0.30 0.13 41 1008.3
20260507193427 64 355 6.0 17.0 0.00 0.30 0.13 42 1008.4
20260507192923 64 317 5.0 12.0 0.00 0.30 0.13 44 1008.4
20260507192633 64 0 5.0 12.0 0.00 0.30 0.13 41 1008.4
20260507191908 64 329 4.0 12.0 0.00 0.30 0.13 43 1008.5
20260507191624 64 306 4.0 12.0 0.00 0.30 0.13 43 1008.6
20260507190857 64 9 3.0 12.0 0.00 0.30 0.13 40 1008.5
20260507190351 64 259 4.0 12.0 0.00 0.30 0.13 43 1008.6
20260507185844 64 261 4.0 12.0 0.00 0.30 0.13 44 1008.7
20260507185608 64 302 4.0 12.0 0.00 0.30 0.13 41 1008.7
20260507184832 64 262 4.0 12.0 0.00 0.30 0.13 43 1008.9
20260507184556 64 215 3.0 10.0 0.00 0.30 0.13 42 1008.9
20260507183821 63 264 3.0 10.0 0.00 0.30 0.13 43 1008.9
20260507183315 63 18 5.0 13.0 0.00 0.30 0.13 42 1009.0
20260507183029 63 0 6.0 13.0 0.00 0.30 0.13 42 1009.1
20260507182306 63 344 4.0 11.0 0.00 0.30 0.13 43 1009.1
20260507181757 62 30 4.0 11.0 0.00 0.30 0.13 44 1009.1
20260507181305 63 25 4.0 11.0 0.00 0.30 0.13 49 1009.0
20260507180749 63 347 5.0 12.0 0.00 0.30 0.13 46 1009.0
20260507180234 63 343 4.0 12.0 0.00 0.30 0.13 45 1009.1
20260507175957 62 267 4.0 11.0 0.00 0.30 0.13 46 1009.1
20260507175232 62 180 5.0 11.0 0.00 0.30 0.13 49 1009.2
20260507174731 62 300 5.0 9.0 0.00 0.30 0.13 47 1009.3
20260507174231 62 304 5.0 9.0 0.00 0.30 0.13 46 1009.3
20260507173958 62 355 6.0 11.0 0.00 0.30 0.13 49 1009.3
20260507173232 62 323 6.0 11.0 0.00 0.30 0.13 46 1009.4
20260507172730 63 328 4.0 11.0 0.00 0.30 0.13 47 1009.4
20260507172232 62 308 3.0 9.0 0.00 0.30 0.13 50 1009.5
20260507171732 61 261 3.0 9.0 0.00 0.30 0.13 45 1009.7
20260507171231 62 286 6.0 13.0 0.00 0.30 0.13 50 1009.8
20260507170729 62 335 7.0 20.0 0.00 0.30 0.13 47 1010.0
20260507170227 62 34 4.0 20.0 0.00 0.30 0.13 46 1009.9
20260507165729 62 321 4.0 13.0 0.00 0.30 0.13 55 1009.9
20260507165513 61 256 5.0 12.0 0.00 0.30 0.13 51 1010.0
20260507164732 61 327 5.0 12.0 0.00 0.30 0.13 52 1010.1
20260507164233 61 300 5.0 12.0 0.00 0.30 0.13 49 1010.3
20260507163733 61 26 4.0 12.0 0.00 0.30 0.13 47 1010.3
20260507163229 61 340 4.0 12.0 0.00 0.30 0.13 52 1010.4
20260507162950 60 34 4.0 12.0 0.00 0.30 0.13 52 1010.4
20260507162227 60 50 5.0 9.0 0.00 0.30 0.13 52 1010.5
20260507161725 60 344 6.0 13.0 0.00 0.30 0.13 52 1010.6
20260507161225 60 11 5.0 13.0 0.00 0.30 0.13 50 1010.7
20260507160724 60 23 3.0 10.0 0.00 0.30 0.13 49 1010.7
20260507160450 59 323 4.0 10.0 0.00 0.31 0.13 52 1010.7